Time,TemperatureF,DewpointF,PressureIn,WindDirection,WindDirectionDegrees,WindSpeedMPH,WindSpeedGustMPH,Humidity,HourlyPrecipIn,Conditions,Clouds,dailyrainin,SoftwareType,DateUTC
2013-08-26 00:00:00,68.2,59.2,30.23,NW,313,1.0,8.0,73,0.00,,,0.00,Wunderground v.1.15,2013-08-26 04:00:00,
2013-08-26 00:10:00,68.1,59.5,30.22,NW,308,2.0,2.0,74,0.00,,,0.00,Wunderground v.1.15,2013-08-26 04:10:00,
2013-08-26 00:20:00,68.1,59.5,30.22,NNE,18,1.0,8.0,74,0.00,,,0.00,Wunderground v.1.15,2013-08-26 04:20:00,
2013-08-26 00:30:00,68.3,59.3,30.22,NW,319,2.0,8.0,73,0.00,,,0.00,Wunderground v.1.15,2013-08-26 04:30:00,
2013-08-26 00:40:00,68.3,59.7,30.22,WNW,297,1.0,8.0,74,0.00,,,0.00,Wunderground v.1.15,2013-08-26 04:40:00,
2013-08-26 00:50:00,68.5,59.9,30.22,West,281,2.0,2.0,74,0.00,,,0.00,Wunderground v.1.15,2013-08-26 04:50:00,
2013-08-26 01:00:00,68.6,60.7,30.22,SE,146,2.0,8.0,76,0.00,,,0.00,Wunderground v.1.15,2013-08-26 05:00:00,
2013-08-26 01:10:00,68.7,60.8,30.22,WNW,290,2.0,2.0,76,0.00,,,0.00,Wunderground v.1.15,2013-08-26 05:10:00,
2013-08-26 01:20:00,68.7,59.7,30.21,NE,36,2.0,2.0,73,0.00,,,0.00,Wunderground v.1.15,2013-08-26 05:20:00,
2013-08-26 01:30:00,68.7,59.7,30.22,East,90,2.0,8.0,73,0.00,,,0.00,Wunderground v.1.15,2013-08-26 05:30:00,
2013-08-26 01:40:00,68.6,59.6,30.22,WNW,297,2.0,2.0,73,0.00,,,0.00,Wunderground v.1.15,2013-08-26 05:40:00,
2013-08-26 01:50:00,68.6,60.4,30.21,ENE,77,2.0,8.0,75,0.00,,,0.00,Wunderground v.1.15,2013-08-26 05:50:00,
2013-08-26 02:10:00,68.7,61.2,30.21,West,264,2.0,8.0,77,0.00,,,0.00,Wunderground v.1.15,2013-08-26 06:10:00,
2013-08-26 02:20:00,68.8,62.0,30.20,WNW,296,2.0,8.0,79,0.00,,,0.00,Wunderground v.1.15,2013-08-26 06:20:00,
2013-08-26 02:30:00,68.8,62.4,30.20,SE,142,2.0,8.0,80,0.00,,,0.00,Wunderground v.1.15,2013-08-26 06:30:00,
2013-08-26 02:40:00,68.7,62.6,30.19,ESE,110,2.0,8.0,81,0.00,,,0.00,Wunderground v.1.15,2013-08-26 06:40:00,
2013-08-26 02:50:00,68.6,62.5,30.19,SSW,212,2.0,8.0,81,0.00,,,0.00,Wunderground v.1.15,2013-08-26 06:50:00,
2013-08-26 03:00:00,68.7,62.6,30.19,NW,316,2.0,2.0,81,0.00,,,0.00,Wunderground v.1.15,2013-08-26 07:00:00,
2013-08-26 03:10:00,68.7,62.6,30.19,West,259,2.0,8.0,81,0.00,,,0.00,Wunderground v.1.15,2013-08-26 07:10:00,
2013-08-26 03:20:00,68.7,62.6,30.19,South,169,2.0,2.0,81,0.00,,,0.00,Wunderground v.1.15,2013-08-26 07:20:00,
2013-08-26 03:30:00,68.8,63.1,30.18,ESE,120,2.0,8.0,82,0.00,,,0.00,Wunderground v.1.15,2013-08-26 07:30:00,
2013-08-26 03:40:00,68.8,63.1,30.18,NW,313,2.0,8.0,82,0.00,,,0.00,Wunderground v.1.15,2013-08-26 07:40:00,
2013-08-26 03:50:00,68.9,63.5,30.17,NW,322,3.0,3.0,83,0.00,,,0.00,Wunderground v.1.15,2013-08-26 07:50:00,
2013-08-26 04:00:00,68.8,63.8,30.17,West,278,2.0,8.0,84,0.00,,,0.00,Wunderground v.1.15,2013-08-26 08:00:00,
2013-08-26 04:10:00,68.8,64.1,30.17,East,82,2.0,2.0,85,0.00,,,0.00,Wunderground v.1.15,2013-08-26 08:10:00,
2013-08-26 04:20:00,68.8,64.1,30.16,WNW,297,2.0,8.0,85,0.00,,,0.00,Wunderground v.1.15,2013-08-26 08:20:00,
2013-08-26 04:30:00,68.7,64.0,30.16,WNW,284,1.0,8.0,85,0.00,,,0.00,Wunderground v.1.15,2013-08-26 08:30:00,
2013-08-26 04:40:00,68.7,64.3,30.16,South,190,2.0,2.0,86,0.00,,,0.00,Wunderground v.1.15,2013-08-26 08:40:00,
2013-08-26 04:50:00,68.8,64.4,30.16,ESE,119,2.0,8.0,86,0.00,,,0.00,Wunderground v.1.15,2013-08-26 08:50:00,
2013-08-26 05:00:00,68.8,64.8,30.16,WNW,288,2.0,2.0,87,0.00,,,0.00,Wunderground v.1.15,2013-08-26 09:00:00,
2013-08-26 05:10:00,68.7,64.7,30.16,West,262,2.0,8.0,87,0.00,,,0.00,Wunderground v.1.15,2013-08-26 09:10:00,
2013-08-26 05:20:00,68.6,64.9,30.16,WSW,250,2.0,2.0,88,0.00,,,0.00,Wunderground v.1.15,2013-08-26 09:20:00,
2013-08-26 05:30:00,68.5,64.8,30.16,NW,308,2.0,8.0,88,0.00,,,0.00,Wunderground v.1.15,2013-08-26 09:30:00,
2013-08-26 05:40:00,68.4,64.7,30.16,NW,321,2.0,8.0,88,0.00,,,0.00,Wunderground v.1.15,2013-08-26 09:40:00,
2013-08-26 05:50:00,68.5,64.8,30.16,South,187,2.0,2.0,88,0.00,,,0.00,Wunderground v.1.15,2013-08-26 09:50:00,
2013-08-26 06:00:00,68.5,64.8,30.16,West,259,2.0,2.0,88,0.00,,,0.00,Wunderground v.1.15,2013-08-26 10:00:00,
2013-08-26 06:10:00,68.6,64.9,30.16,NW,319,2.0,2.0,88,0.00,,,0.00,Wunderground v.1.15,2013-08-26 10:10:00,
2013-08-26 06:20:00,68.6,64.9,30.15,NW,315,2.0,2.0,88,0.00,,,0.00,Wunderground v.1.15,2013-08-26 10:20:00,
2013-08-26 06:30:00,68.5,64.8,30.15,WNW,285,1.0,8.0,88,0.00,,,0.00,Wunderground v.1.15,2013-08-26 10:30:00,
2013-08-26 06:40:00,68.6,64.9,30.15,West,281,2.0,2.0,88,0.00,,,0.00,Wunderground v.1.15,2013-08-26 10:40:00,
2013-08-26 06:50:00,68.8,65.1,30.14,West,260,2.0,8.0,88,0.00,,,0.00,Wunderground v.1.15,2013-08-26 10:50:00,
2013-08-26 07:00:00,69.0,65.3,30.14,West,271,2.0,8.0,88,0.00,,,0.00,Wunderground v.1.15,2013-08-26 11:00:00,
2013-08-26 07:10:00,69.0,65.3,30.14,West,278,2.0,2.0,88,0.00,,,0.00,Wunderground v.1.15,2013-08-26 11:10:00,
2013-08-26 07:20:00,69.2,65.5,30.14,NE,47,2.0,2.0,88,0.00,,,0.00,Wunderground v.1.15,2013-08-26 11:20:00,
2013-08-26 07:30:00,69.5,65.8,30.13,SSE,151,2.0,8.0,88,0.00,,,0.00,Wunderground v.1.15,2013-08-26 11:30:00,
2013-08-26 07:40:00,69.8,65.8,30.13,NNW,333,2.0,8.0,87,0.00,,,0.00,Wunderground v.1.15,2013-08-26 11:40:00,
2013-08-26 07:50:00,70.0,65.6,30.13,SE,138,3.0,3.0,86,0.00,,,0.00,Wunderground v.1.15,2013-08-26 11:50:00,
2013-08-26 08:00:00,70.3,65.6,30.13,SW,218,3.0,3.0,85,0.00,,,0.00,Wunderground v.1.15,2013-08-26 12:00:00,
2013-08-26 08:10:00,70.9,66.2,30.12,South,172,2.0,2.0,85,0.00,,,0.00,Wunderground v.1.15,2013-08-26 12:10:00,
2013-08-26 08:20:00,71.5,66.4,30.12,SSW,201,3.0,8.0,84,0.00,,,0.00,Wunderground v.1.15,2013-08-26 12:20:00,
2013-08-26 08:30:00,70.9,66.2,30.11,West,270,3.0,3.0,85,0.00,,,0.00,Wunderground v.1.15,2013-08-26 12:30:00,
2013-08-26 08:40:00,70.7,66.0,30.11,West,276,4.0,8.0,85,0.00,,,0.00,Wunderground v.1.15,2013-08-26 12:40:00,
2013-08-26 08:50:00,70.8,66.1,30.12,SE,146,3.0,8.0,85,0.00,,,0.00,Wunderground v.1.15,2013-08-26 12:50:00,
2013-08-26 09:00:00,70.7,66.0,30.12,SW,224,3.0,8.0,85,0.00,,,0.00,Wunderground v.1.15,2013-08-26 13:00:00,
2013-08-26 09:10:00,70.8,65.7,30.12,West,273,2.0,2.0,84,0.00,,,0.00,Wunderground v.1.15,2013-08-26 13:10:00,
2013-08-26 09:20:00,70.8,65.7,30.12,WNW,299,3.0,3.0,84,0.00,,,0.00,Wunderground v.1.15,2013-08-26 13:20:00,
2013-08-26 09:30:00,71.1,65.7,30.11,West,276,3.0,8.0,83,0.00,,,0.00,Wunderground v.1.15,2013-08-26 13:30:00,
2013-08-26 09:40:00,71.3,65.9,30.11,ENE,58,3.0,8.0,83,0.00,,,0.00,Wunderground v.1.15,2013-08-26 13:40:00,
2013-08-26 09:50:00,71.5,65.7,30.11,SSW,203,3.0,8.0,82,0.00,,,0.00,Wunderground v.1.15,2013-08-26 13:50:00,
2013-08-26 10:00:00,72.0,66.2,30.10,SW,235,3.0,8.0,82,0.00,,,0.00,Wunderground v.1.15,2013-08-26 14:00:00,
2013-08-26 10:10:00,72.5,67.0,30.10,West,266,2.0,10.0,83,0.00,,,0.00,Wunderground v.1.15,2013-08-26 14:10:00,
2013-08-26 10:20:00,72.5,66.7,30.10,NW,319,2.0,8.0,82,0.00,,,0.00,Wunderground v.1.15,2013-08-26 14:20:00,
2013-08-26 10:30:00,72.9,66.7,30.10,NNE,15,3.0,8.0,81,0.00,,,0.00,Wunderground v.1.15,2013-08-26 14:30:00,
2013-08-26 10:40:00,72.4,66.2,30.10,SW,217,3.0,8.0,81,0.00,,,0.00,Wunderground v.1.15,2013-08-26 14:40:00,
2013-08-26 10:50:00,72.1,66.3,30.10,West,271,3.0,3.0,82,0.00,,,0.00,Wunderground v.1.15,2013-08-26 14:50:00,
2013-08-26 11:00:00,72.2,66.7,30.09,ENE,59,3.0,3.0,83,0.00,,,0.00,Wunderground v.1.15,2013-08-26 15:00:00,
2013-08-26 11:10:00,72.3,65.8,30.09,WSW,243,2.0,8.0,80,0.00,,,0.00,Wunderground v.1.15,2013-08-26 15:10:00,
2013-08-26 11:20:00,72.1,65.6,30.08,North,352,3.0,3.0,80,0.00,,,0.00,Wunderground v.1.15,2013-08-26 15:20:00,
2013-08-26 11:30:00,72.6,65.7,30.08,West,259,3.0,8.0,79,0.00,,,0.00,Wunderground v.1.15,2013-08-26 15:30:00,
2013-08-26 11:40:00,72.6,66.4,30.07,WSW,251,3.0,8.0,81,0.00,,,0.00,Wunderground v.1.15,2013-08-26 15:40:00,
2013-08-26 11:50:00,73.1,67.3,30.06,SW,223,4.0,8.0,82,0.00,,,0.00,Wunderground v.1.15,2013-08-26 15:50:00,
2013-08-26 12:00:00,73.9,68.1,30.06,West,266,4.0,4.0,82,0.00,,,0.00,Wunderground v.1.15,2013-08-26 16:00:00,
2013-08-26 12:10:00,75.3,68.0,30.05,East,79,3.0,8.0,78,0.00,,,0.00,Wunderground v.1.15,2013-08-26 16:10:00,
2013-08-26 12:20:00,74.9,67.6,30.04,SW,215,3.0,8.0,78,0.00,,,0.00,Wunderground v.1.15,2013-08-26 16:20:00,
2013-08-26 12:30:00,74.8,67.5,30.05,WSW,249,3.0,8.0,78,0.00,,,0.00,Wunderground v.1.15,2013-08-26 16:30:00,
2013-08-26 12:40:00,74.5,67.9,30.04,SW,221,4.0,4.0,80,0.00,,,0.00,Wunderground v.1.15,2013-08-26 16:40:00,
2013-08-26 12:50:00,74.7,67.4,30.04,SSW,210,3.0,3.0,78,0.00,,,0.00,Wunderground v.1.15,2013-08-26 16:50:00,
2013-08-26 13:00:00,73.8,67.2,30.04,SSW,204,3.0,3.0,80,0.00,,,0.00,Wunderground v.1.15,2013-08-26 17:00:00,
2013-08-26 13:10:00,73.3,66.8,30.04,WNW,288,4.0,8.0,80,0.00,,,0.00,Wunderground v.1.15,2013-08-26 17:10:00,
2013-08-26 13:20:00,73.9,67.7,30.03,WSW,255,4.0,8.0,81,0.00,,,0.00,Wunderground v.1.15,2013-08-26 17:20:00,
2013-08-26 13:30:00,75.0,68.0,30.02,SSW,210,3.0,3.0,79,0.00,,,0.00,Wunderground v.1.15,2013-08-26 17:30:00,
2013-08-26 13:40:00,76.1,68.4,30.02,SSW,207,3.0,3.0,77,0.00,,,0.00,Wunderground v.1.15,2013-08-26 17:40:00,
2013-08-26 13:50:00,75.7,68.4,30.01,SE,145,4.0,4.0,78,0.00,,,0.00,Wunderground v.1.15,2013-08-26 17:50:00,
2013-08-26 14:00:00,76.0,67.9,30.01,West,279,4.0,8.0,76,0.00,,,0.00,Wunderground v.1.15,2013-08-26 18:00:00,
2013-08-26 14:10:00,75.6,67.9,30.01,WNW,284,3.0,8.0,77,0.00,,,0.00,Wunderground v.1.15,2013-08-26 18:10:00,
2013-08-26 14:20:00,75.4,68.1,30.00,WSW,240,3.0,3.0,78,0.00,,,0.00,Wunderground v.1.15,2013-08-26 18:20:00,
2013-08-26 14:30:00,74.9,67.6,30.00,WNW,302,3.0,8.0,78,0.00,,,0.00,Wunderground v.1.15,2013-08-26 18:30:00,
2013-08-26 14:40:00,75.1,67.4,30.00,WNW,285,3.0,8.0,77,0.00,,,0.00,Wunderground v.1.15,2013-08-26 18:40:00,
2013-08-26 14:50:00,75.3,67.6,29.99,West,278,4.0,4.0,77,0.00,,,0.00,Wunderground v.1.15,2013-08-26 18:50:00,
2013-08-26 15:00:00,75.4,67.3,29.99,West,278,3.0,3.0,76,0.00,,,0.00,Wunderground v.1.15,2013-08-26 19:00:00,
2013-08-26 15:10:00,75.5,67.4,29.99,WSW,245,2.0,8.0,76,0.00,,,0.00,Wunderground v.1.15,2013-08-26 19:10:00,
2013-08-26 15:20:00,74.6,66.9,29.98,SSE,158,3.0,8.0,77,0.00,,,0.00,Wunderground v.1.15,2013-08-26 19:20:00,
2013-08-26 15:30:00,73.9,66.2,29.98,West,278,3.0,8.0,77,0.00,,,0.00,Wunderground v.1.15,2013-08-26 19:30:00,
2013-08-26 15:40:00,73.1,66.6,29.98,SSW,201,3.0,8.0,80,0.00,,,0.00,Wunderground v.1.15,2013-08-26 19:40:00,
2013-08-26 15:50:00,73.7,67.9,29.97,SSW,207,3.0,10.0,82,0.00,,,0.00,Wunderground v.1.15,2013-08-26 19:50:00,
2013-08-26 16:00:00,73.3,67.8,29.96,WSW,248,3.0,3.0,83,0.00,,,0.00,Wunderground v.1.15,2013-08-26 20:00:00,
2013-08-26 16:10:00,73.4,67.9,29.96,SW,225,3.0,8.0,83,0.00,,,0.00,Wunderground v.1.15,2013-08-26 20:10:00,
2013-08-26 16:20:00,73.0,67.9,29.96,SE,143,3.0,3.0,84,0.00,,,0.00,Wunderground v.1.15,2013-08-26 20:20:00,
2013-08-26 16:30:00,72.6,67.8,29.95,SW,214,2.0,8.0,85,0.00,,,0.00,Wunderground v.1.15,2013-08-26 20:30:00,
2013-08-26 16:40:00,72.9,68.1,29.95,North,356,2.0,8.0,85,0.00,,,0.00,Wunderground v.1.15,2013-08-26 20:40:00,
2013-08-26 16:50:00,72.4,67.6,29.95,West,277,3.0,8.0,85,0.00,,,0.00,Wunderground v.1.15,2013-08-26 20:50:00,
2013-08-26 17:00:00,72.5,67.7,29.95,NW,304,2.0,2.0,85,0.00,,,0.00,Wunderground v.1.15,2013-08-26 21:00:00,
2013-08-26 17:10:00,72.6,67.8,29.95,NNE,13,2.0,2.0,85,0.00,,,0.00,Wunderground v.1.15,2013-08-26 21:10:00,
2013-08-26 17:20:00,72.4,68.3,29.95,SW,218,2.0,2.0,87,0.00,,,0.00,Wunderground v.1.15,2013-08-26 21:20:00,
2013-08-26 17:30:00,72.2,68.4,29.95,WNW,290,2.0,2.0,88,0.00,,,0.00,Wunderground v.1.15,2013-08-26 21:30:00,
2013-08-26 17:40:00,71.9,68.2,29.95,SSW,201,2.0,2.0,88,0.00,,,0.00,Wunderground v.1.15,2013-08-26 21:40:00,
2013-08-26 17:50:00,71.6,66.5,29.95,SE,136,3.0,3.0,84,0.00,,,0.00,Wunderground v.1.15,2013-08-26 21:50:00,
2013-08-26 18:00:00,71.5,66.4,29.94,WNW,293,2.0,8.0,84,0.00,,,0.00,Wunderground v.1.15,2013-08-26 22:00:00,
2013-08-26 18:10:00,71.5,67.1,29.95,SW,221,2.0,8.0,86,0.00,,,0.00,Wunderground v.1.15,2013-08-26 22:10:00,
2013-08-26 18:20:00,71.4,67.3,29.94,NNW,330,2.0,2.0,87,0.00,,,0.00,Wunderground v.1.15,2013-08-26 22:20:00,
2013-08-26 18:30:00,71.2,67.5,29.94,SSW,204,2.0,8.0,88,0.00,,,0.00,Wunderground v.1.15,2013-08-26 22:30:00,
2013-08-26 18:40:00,70.9,67.5,29.94,SSW,201,2.0,2.0,89,0.00,,,0.00,Wunderground v.1.15,2013-08-26 22:40:00,
2013-08-26 18:50:00,70.8,67.7,29.94,WSW,257,2.0,8.0,90,0.00,,,0.00,Wunderground v.1.15,2013-08-26 22:50:00,
2013-08-26 19:00:00,70.6,67.5,29.94,West,259,2.0,2.0,90,0.00,,,0.00,Wunderground v.1.15,2013-08-26 23:00:00,
2013-08-26 19:10:00,70.5,67.4,29.94,NNW,329,2.0,2.0,90,0.00,,,0.00,Wunderground v.1.15,2013-08-26 23:10:00,
2013-08-26 19:20:00,70.4,67.6,29.94,SSW,204,2.0,2.0,91,0.00,,,0.00,Wunderground v.1.15,2013-08-26 23:20:00,
2013-08-26 19:30:00,70.3,67.5,29.94,NNE,15,2.0,2.0,91,0.00,,,0.00,Wunderground v.1.15,2013-08-26 23:30:00,
2013-08-26 19:40:00,70.3,67.5,29.94,NNW,340,2.0,2.0,91,0.00,,,0.00,Wunderground v.1.15,2013-08-26 23:40:00,
2013-08-26 19:50:00,70.2,67.8,29.93,North,352,2.0,2.0,92,0.00,,,0.00,Wunderground v.1.15,2013-08-26 23:50:00,
2013-08-26 20:00:00,70.2,67.8,29.93,WNW,302,2.0,2.0,92,0.00,,,0.00,Wunderground v.1.15,2013-08-27 00:00:00,
2013-08-26 20:10:00,70.2,67.8,29.93,WSW,241,2.0,2.0,92,0.00,,,0.00,Wunderground v.1.15,2013-08-27 00:10:00,
2013-08-26 20:20:00,70.2,67.8,29.93,North,4,2.0,8.0,92,0.00,,,0.00,Wunderground v.1.15,2013-08-27 00:20:00,
2013-08-26 20:30:00,70.2,67.8,29.93,SW,228,2.0,2.0,92,0.00,,,0.00,Wunderground v.1.15,2013-08-27 00:30:00,
2013-08-26 20:40:00,70.2,68.1,29.93,West,272,2.0,2.0,93,0.00,,,0.00,Wunderground v.1.15,2013-08-27 00:40:00,
2013-08-26 20:50:00,70.1,68.0,29.93,ENE,65,1.0,8.0,93,0.00,,,0.00,Wunderground v.1.15,2013-08-27 00:50:00,
2013-08-26 21:00:00,70.1,68.0,29.93,NNE,23,1.0,8.0,93,0.00,,,0.00,Wunderground v.1.15,2013-08-27 01:00:00,
2013-08-26 21:10:00,70.1,68.0,29.93,North,352,1.0,8.0,93,0.00,,,0.00,Wunderground v.1.15,2013-08-27 01:10:00,
2013-08-26 21:20:00,70.0,67.9,29.93,WSW,255,1.0,1.0,93,0.00,,,0.00,Wunderground v.1.15,2013-08-27 01:20:00,
2013-08-26 21:30:00,70.0,68.2,29.93,SW,232,2.0,2.0,94,0.00,,,0.00,Wunderground v.1.15,2013-08-27 01:30:00,
2013-08-26 21:40:00,70.0,67.6,29.93,WNW,291,2.0,2.0,92,0.00,,,0.00,Wunderground v.1.15,2013-08-27 01:40:00,
2013-08-26 21:50:00,70.0,67.6,29.92,WSW,238,2.0,2.0,92,0.00,,,0.00,Wunderground v.1.15,2013-08-27 01:50:00,
2013-08-26 22:00:00,69.9,67.5,29.92,NW,312,2.0,2.0,92,0.00,,,0.00,Wunderground v.1.15,2013-08-27 02:00:00,
2013-08-26 22:10:00,69.9,67.5,29.92,North,352,2.0,8.0,92,0.00,,,0.00,Wunderground v.1.15,2013-08-27 02:10:00,
2013-08-26 22:20:00,70.0,67.6,29.92,West,276,2.0,8.0,92,0.00,,,0.00,Wunderground v.1.15,2013-08-27 02:20:00,
2013-08-26 22:30:00,70.0,67.6,29.92,WSW,240,2.0,8.0,92,0.00,,,0.00,Wunderground v.1.15,2013-08-27 02:30:00,
2013-08-26 22:40:00,70.1,67.7,29.92,WSW,245,2.0,8.0,92,0.00,,,0.00,Wunderground v.1.15,2013-08-27 02:40:00,
2013-08-26 22:50:00,70.1,68.0,29.92,West,281,2.0,2.0,93,0.00,,,0.00,Wunderground v.1.15,2013-08-27 02:50:00,
2013-08-26 23:00:00,70.1,68.0,29.92,SSE,161,2.0,8.0,93,0.00,,,0.00,Wunderground v.1.15,2013-08-27 03:00:00,
2013-08-26 23:10:00,70.0,67.9,29.91,West,271,2.0,2.0,93,0.00,,,0.00,Wunderground v.1.15,2013-08-27 03:10:00,
2013-08-26 23:20:00,70.0,68.2,29.91,WSW,257,2.0,2.0,94,0.00,,,0.00,Wunderground v.1.15,2013-08-27 03:20:00,
2013-08-26 23:30:00,69.9,68.1,29.91,WNW,302,2.0,2.0,94,0.00,,,0.00,Wunderground v.1.15,2013-08-27 03:30:00,
2013-08-26 23:40:00,69.9,68.1,29.91,WSW,243,2.0,2.0,94,0.00,,,0.00,Wunderground v.1.15,2013-08-27 03:40:00,
2013-08-26 23:50:00,69.9,68.1,29.91,NW,311,1.0,1.0,94,0.00,,,0.00,Wunderground v.1.15,2013-08-27 03:50:00,